Regional Weather Roundup
Issued by NWS Lake Charles, LA

Home | Current Version | Previous Version | Text Only | Print | Product List | Glossary On
Versions: 1 2 3 4 5 6 7 8 9 10 11 12 13 14 15 16 17 18 19 20 21 22 23 24 25 26 27 28 29 30 31 32 33 34 35 36 37 38 39 40 41 42 43 44 45 46 47 48 49 50
000
ASUS44 KLCH 140110
RWRLCH
RWRLCH
REGIONAL WEATHER ROUNDUP
NATIONAL WEATHER SERVICE LAKE CHARLES LA
800 PM CDT SUN JUL 13 2014

Note: "fair" indicates few or no clouds below 12,000 feet with no
significant weather and/or obstructions to visibility.


ACROSS SOUTHEAST TEXAS

CITY           SKY/WX    TMP DP  RH WIND       PRES   REMARKS
BEAUMONT       LGT RAIN  73  71  93 CALM      30.04F
BEAUMONT CITY  RAIN      72  69  92 E3        30.05F
ORANGE         RAIN      72  72 100 W3        30.06S
JASPER         LGT RAIN  72  69  91 CALM      30.06F
$$

ACROSS CENTRAL LOUISIANA

CITY           SKY/WX    TMP DP  RH WIND       PRES   REMARKS
LEESVILLE      MOCLDY    76  72  87 SW3       30.04R
FULLERTON        N/A     80  75  84 SW3       30.02R
ALEXANDRIA INT MOCLDY    83  75  77 S3        30.01R
ESLER FIELD    CLOUDY    86  75  69 SW3       30.02R
DERIDDER         N/A     74  70  87 CALM      30.06F
OAKDALE        PTCLDY    80  74  82 SW8       30.03R
OPELOUSAS        N/A     80  73  79 S3        30.02F
$$

ACROSS SOUTHWEST AND SOUTH CENTRAL LOUISIANA

CITY           SKY/WX    TMP DP  RH WIND       PRES   REMARKS
SULPHUR        CLOUDY    74  73  94 W3        30.06R
LAKE CHARLES   MOCLDY    76  73  91 W3        30.04R
CHENNAULT INT  MOCLDY    75  72  88 MISG      30.05R
CAMERON PHI    PTCLDY    77  72  83 NW7G13    30.05R
DEQUINCY         N/A     71  70  95 CALM      30.04F
JENNINGS       MOCLDY    81  73  78 W6        30.04R
LAFAYETTE      PTCLDY    82  72  71 S5        30.04R
NEW IBERIA     PTCLDY    79  74  84 CALM      30.05R
ABBEVILLE        N/A     78  74  87 CALM      30.04S
PATTERSON      MOCLDY    79  75  89 S3        30.07F
SALT POINT       N/A     87  76  69 CALM      30.04R
$$

SELECTED SITES ACROSS THE REGION

CITY           SKY/WX    TMP DP  RH WIND       PRES   REMARKS
HOUSTON BUSH   MOCLDY    85  70  60 E18       30.02R
HOUSTON HOBBY  MOCLDY    81  74  79 SE6       30.02R
GALVESTON      CLEAR     85  75  72 S6        30.04R
COLLEGE STAT   MOCLDY    90  70  51 SE7       29.99F
CONROE         MOCLDY    83  70  64 VRB7      30.03R
HUNTSVILLE     CLOUDY    88  72  58 W3        30.01S
LUFKIN         CLOUDY    84  74  71 SE12      30.03R
SHREVEPORT     MOCLDY    89  72  56 S8        29.99R
MONROE         PTCLDY    88  74  63 SE3       30.00R
NATCHEZ MS     CLOUDY    79  72  78 S5        30.03S
BATON ROUGE    MOCLDY    83  73  72 SW5       30.02F
N.O. INTL ARPT PTCLDY    82  74  76 E6        30.02S
SLIDELL        CLEAR     78  73  84 CALM      30.02F
$$

MARINE REPORTS

STATION/POSITION TIME  TEMP    WIND        PRES    VSBY  WAVE
                       AIR SEA DIR/SP/G                  HT/PER
                 (UTC) (F)     (DEG/KT/KT) (MB)    (MI)  (FT/S)
BUOY 30 S HIGH I 0000   85     210/  6     1016.8R
SEA RIM ST PARK  0100   73     290/  5/  6 1017.7F
PORT ARTHUR      0100      88  280/  7/ 11 1017.1S
SABINE PASS N    0100   76 87  320/  1/  4 1017.2F
TEXAS POINT      0100   76 88  330/  6/  8 1017.4F
CALCASIEU PASS   0100   78 87  340/  9/ 13 1018.5R
LK CHARLES BEACH 0100   76 87              1018.1R
MARSH ISLAND     0000   87     270/  5/  7   N/A
FRESH WATER LOCK 0100   83 88  250/  3/  5 1017.4R
AMERADA PASS     0100   83 88  280/  3/  5 1017.3R
$$


USA.gov is the U.S. government's official web portal to all federal, state and local government web resources and services.